Location: Basse Occidentale du Courleau
(48.3833°N, 4.8333°W)
Time: 18:13:23
(UTC+00:00)

IRIDIUM 103 - Pass Details

Date: 05 July 2020
Orbit: 776 x 779 km, 86.4° (Epoch: 05 August)

Event Time Altitude Azimuth Distance (km) Brightness Sun altitude
Exits shadow 23:41:41 33° 158° (SSE) 1,283 4.9 -18.3°
Maximum altitude 23:43:56 64° 89° (E) 865 4.5 -18.4°
Drops below altitude 10° 23:49:07 10° 9° (N) 2,343 7.9 -18.5°
Sets 23:51:29 0° 7° (N) 3,275 9.0 -18.6°
